Location: Brotuna
(46.2000°N, 22.6000°E)
Time: 18:40:48
(UTC+00:00)

COSMOS 2406 - Pass Details

Date: 09 April 2020
Orbit: 842 x 865 km, 71.0° (Epoch: 03 June)

Event Time Altitude Azimuth Distance (km) Brightness Sun altitude
Exits shadow 19:13:08 37° 148° (SSE) 1,297 3.7 -20.2°
Maximum altitude 19:14:40 45° 108° (ESE) 1,137 3.4 -20.4°
Drops below altitude 10° 19:20:04 10° 37° (NE) 2,488 5.6 -21.2°
Sets 19:22:37 0° 32° (NNE) 3,432 6.5 -21.5°
